Vorticity
nan nan nan nan nan nan nan nan nan nan nan nan nan nan nan nan nan nan nan nan nan nan nan nan nan nan nan nan nan nan nan nan
nan 4 5 7 7 7 8 8 8 10 10 12 8 5 7 7 5 5 8 8 8 9 9 8 8 8 8 8 9 10 11 nan
nan 3 5 7 7 7 7 8 10 10 9 10 9 7 8 7 6 7 7 7 9 8 7 9 9 8 9 9 9 10 11 nan
nan 3 5 6 6 7 8 8 10 9 9 10 10 10 8 7 7 8 6 8 10 8 9 10 9 10 10 8 9 8 8 nan
nan 4 5 5 7 8 8 8 9 9 9 9 9 9 9 8 8 6 6 7 8 10 10 9 9 11 8 8 8 10 8 nan
nan 3 5 6 7 8 8 8 9 8 9 9 9 9 10 8 6 7 10 9 9 9 9 8 10 9 8 10 9 8 8 nan
nan 5 6 5 7 8 8 8 8 8 8 8 9 9 9 9 9 10 8 9 8 7 9 10 11 8 8 10 10 9 9 nan
nan 4 5 6 6 8 8 8 8 8 8 8 9 9 9 8 9 8 9 11 8 5 8 11 10 9 10 10 11 11 10 nan
nan 6 6 6 6 7 8 7 8 8 8 9 9 10 11 7 7 10 11 8 6 7 9 9 9 9 10 13 13 11 12 nan
nan 6 6 6 6 7 8 8 8 8 9 9 9 8 9 8 8 11 9 8 8 7 9 10 11 11 11 12 12 10 10 nan
nan 6 6 6 7 7 7 8 8 9 9 9 8 8 10 10 8 7 9 9 9 9 9 10 11 11 11 12 10 10 10 nan
nan 7 6 5 6 7 8 7 8 9 9 9 9 8 9 11 8 8 9 10 10 10 10 9 10 10 10 10 10 10 8 nan
nan 6 5 5 6 7 8 8 8 9 9 10 10 8 9 10 8 8 10 11 11 10 10 10 10 9 10 10 10 10 8 nan
nan 7 6 5 6 7 8 8 8 9 10 10 10 9 8 9 8 9 10 10 11 10 10 10 10 9 10 12 9 8 10 nan
nan 6 6 5 7 8 8 9 9 9 10 9 9 9 9 10 9 8 10 11 10 10 10 10 10 11 12 9 8 10 12 nan
nan 7 6 6 8 8 8 9 9 10 9 9 9 9 9 9 10 9 11 10 10 10 10 9 11 15 7 3 8 11 12 nan
nan 7 5 7 8 8 9 9 10 10 9 9 9 9 9 10 9 9 10 10 10 11 11 11 13 7 0 7 12 15 14 nan
nan 5 6 8 8 8 9 10 11 10 10 8 9 10 10 10 9 10 10 10 10 11 10 11 11 5 4 8 15 19 14 nan
nan nan nan nan nan nan nan nan nan nan nan nan nan nan nan nan nan nan nan nan nan nan nan nan nan nan nan nan nan nan nan nan
CAPE
0 0 0 0 0 0 0 0 0 0 0 0 0 0 0 0 0 0 0 0 0 1 1 3 5 5 6 10 10 1 0 23
0 0 0 0 0 0 0 0 0 0 0 0 0 0 0 0 0 0 0 0 2 3 2 3 7 4 5 2 3 13 1 0
0 0 0 0 0 0 0 0 0 0 0 0 0 0 0 0 0 0 0 2 4 5 8 8 9 10 8 6 4 1 14 3
0 0 0 0 0 0 0 0 0 0 0 0 0 0 0 0 0 0 0 4 5 5 3 6 7 8 18 15 12 8 6 11
0 0 0 0 0 0 0 0 0 0 0 0 0 0 0 0 0 1 2 4 4 7 5 4 12 13 21 20 10 21 15 6
0 0 0 0 0 0 0 0 0 0 0 0 0 0 0 0 0 1 1 3 5 7 7 9 11 16 8 20 18 18 25 19
0 0 0 0 0 0 0 0 0 0 0 0 0 0 1 0 0 1 2 4 5 5 8 8 10 13 10 17 19 15 17 28
0 0 0 0 0 0 0 0 0 0 0 0 0 1 2 2 1 0 3 4 6 9 8 9 13 14 17 20 16 14 15 17
0 0 0 0 0 0 0 0 0 0 0 0 0 1 0 2 2 3 3 4 8 4 7 7 9 11 5 15 18 15 19 21
0 0 0 0 0 0 0 0 0 0 0 0 0 0 1 5 5 4 4 5 5 7 6 8 8 11 12 17 14 16 22 24
0 0 0 0 0 0 0 0 0 0 0 0 0 1 2 7 10 5 5 5 5 7 6 8 7 11 15 19 17 20 23 17
0 0 0 0 0 0 0 0 0 0 0 0 2 6 5 3 10 6 6 6 7 7 9 8 7 8 10 15 14 16 17 16
0 0 0 0 0 0 0 0 0 0 0 1 5 6 7 4 11 6 5 5 6 9 8 8 6 8 10 11 8 13 15 11
0 0 0 0 0 0 0 0 0 0 0 3 5 5 9 3 8 7 3 6 8 9 8 7 9 10 11 15 15 13 14 13
0 0 0 0 0 0 0 0 0 0 1 5 5 3 6 7 7 9 5 7 8 7 8 9 10 9 10 14 19 18 16 14
0 0 0 0 0 0 0 0 0 1 1 2 5 3 8 10 4 10 7 8 6 7 5 10 10 10 13 21 20 19 15 10
0 0 0 0 0 0 0 0 0 3 3 6 4 4 2 6 7 9 9 6 6 6 7 9 22 16 11 19 20 21 13 13
0 0 0 0 0 0 0 0 1 3 6 5 3 4 5 5 5 4 2 7 7 7 8 19 20 21 11 16 20 16 16 14
1 0 0 0 0 0 0 0 1 3 3 4 6 7 4 6 5 4 4 7 11 11 13 13 24 16 6 9 22 24 21 14